Погода в Кояне

Южная Корея     37°38′16″N   126°49′53″E
темп.,
°C
ветер,
м/с
пор.,
м/с
влажн.,
%
обл.,
%
осадки,
мм/ч
давл.,
гПа
погр.,
м
24 мая, вт
вт2400:00+19ююз12684 0.0 1015140
03:00+17ююз11720 0.0 101543
06:00+17ююз11740 0.0 101660
09:00+23юз22410 0.0 1016541
12:00+28з442518 0.0 10141311
15:00+28з4429100 0.0 10131176
18:00+25зсз4538100 0.0 1012573
21:00+21зсз125095 0.0 1013203
25 мая, ср
ср2500:00+19з1154100 0.0 101380
03:00+18ссз116090 0.0 101269
06:00+17зсз006269 0.0 101237
09:00+23з1241100 0.0 1011551
12:00+26зюз34308 0.0 10091222
15:00+25з6733100 0.0 10081230
18:00+22з5751100 0.0 1007794
21:00+18ююз3578100 0.2 1007471
26 мая, чт
чт2600:00+16з4786100 1.6 1007547
03:00+14з37790 1.7 1007380
06:00+13з24730 0.0 1007270
09:00+18з35423 0.0 1007966
12:00+21юз610362 0.0 10061557
15:00+21юз7103650 0.0 10051634
18:00+18юз6105077 0.0 10041009
21:00+17юз61061100 0.0 1004980
27 мая, пт
пт2700:00+16юз51079100 2.2 1003801
03:00+15зюз37785 3.3 1002564
06:00+14юз128564 0.1 1003209
09:00+17з23581 0.1 1003986
12:00+21зсз45400 0.0 10031796
15:00+22з57380 0.0 10011760
18:00+20зюз574914 0.0 1002669
21:00+17з24575 0.0 1004285
28 мая, сб
сб2800:00+16юз236541 0.0 1005192
03:00+15ю11724 0.0 100548
06:00+15ю23730 0.0 1007192
09:00+20юв22510 0.0 1007534
12:00+25ююз23335 0.0 10061066
15:00+27юз442823 0.0 10051137
18:00+24юз46405 0.0 1006597
21:00+20ююз25675 0.0 1008278